When you browse on this site, cookies collect data to enhance your experience and personalize the content and advertising you see.
Visit our Privacy Policy to learn more. By continuing to use the site, you agree to this use of cookies and data.
  • In United Kingdom
  • List of Countries
  • For 7 days
  • Water Temperature
  • Satellite Maps
  • Weather Map
  • Weather Widgets
  • user-avatar
    Login

    Hourly Weather Sinemorec

    Today, 22 July, Monday

    Time Temperature Precipitation Wind Pressure Humidity
    00:00 +22°C° 0 mm 1 mps 761 mmHg 67%
    01:00 +21°C° 0 mm 1 mps 761 mmHg 63%
    02:00 +20°C° 0 mm 2 mps 761 mmHg 58%
    03:00 +20°C° 0 mm 2 mps 761 mmHg 57%
    04:00 +20°C° 0 mm 2 mps 761 mmHg 55%
    05:00 +20°C° 0 mm 2 mps 761 mmHg 53%
    06:00 +23°C° 0 mm 1 mps 761 mmHg 50%
    07:00 +25°C° 0 mm 1 mps 761 mmHg 46%
    08:00 +28°C° 0 mm 1 mps 761 mmHg 43%
    09:00 +29°C° 0 mm 1 mps 761 mmHg 41%
    10:00 +30°C° 0 mm 2 mps 761 mmHg 40%
    11:00 +31°C° 0 mm 2 mps 761 mmHg 38%
    12:00 +31°C° 0 mm 3 mps 761 mmHg 38%
    13:00 +31°C° 0 mm 3 mps 761 mmHg 37%
    14:00 +31°C° 0 mm 3 mps 760 mmHg 37%
    15:00 +31°C° 0 mm 3 mps 760 mmHg 39%
    16:00 +30°C° 0 mm 3 mps 760 mmHg 41%
    17:00 +30°C° 0 mm 2 mps 760 mmHg 42%
    18:00 +28°C° 0 mm 2 mps 760 mmHg 51%
    19:00 +26°C° 0 mm 1 mps 760 mmHg 59%
    20:00 +24°C° 0 mm 1 mps 759 mmHg 67%
    21:00 +23°C° 0 mm 1 mps 759 mmHg 64%
    22:00 +23°C° 0 mm 1 mps 759 mmHg 61%
    23:00 +23°C° 0 mm 1 mps 759 mmHg 58%

    Tomorrow, 23 July, Tuesday

    Time Temperature Precipitation Wind Pressure Humidity
    00:00 +22°C° 0 mm 1 mps 759 mmHg 57%
    01:00 +21°C° 0 mm 2 mps 759 mmHg 56%
    02:00 +21°C° 0 mm 2 mps 759 mmHg 55%
    03:00 +21°C° 0 mm 2 mps 758 mmHg 54%
    04:00 +21°C° 0 mm 2 mps 758 mmHg 52%
    05:00 +21°C° 0 mm 2 mps 758 mmHg 51%
    06:00 +24°C° 0 mm 2 mps 758 mmHg 51%
    07:00 +26°C° 0 mm 2 mps 758 mmHg 51%
    08:00 +27°C° 0 mm 3 mps 758 mmHg 50%
    09:00 +28°C° 0 mm 3 mps 758 mmHg 50%
    10:00 +29°C° 0 mm 3 mps 758 mmHg 49%
    11:00 +30°C° 0 mm 4 mps 758 mmHg 48%
    12:00 +30°C° 0 mm 4 mps 757 mmHg 50%
    13:00 +30°C° 0 mm 4 mps 757 mmHg 51%
    14:00 +30°C° 0 mm 3 mps 757 mmHg 53%
    15:00 +30°C° 0.2 mm 3 mps 757 mmHg 56%
    16:00 +29°C° 0.2 mm 3 mps 757 mmHg 59%
    17:00 +29°C° 0.2 mm 3 mps 757 mmHg 62%
    18:00 +27°C° 0.6 mm 3 mps 757 mmHg 70%
    19:00 +25°C° 0.6 mm 3 mps 757 mmHg 78%
    20:00 +24°C° 0.6 mm 3 mps 757 mmHg 86%
    21:00 +23°C° 0.7 mm 4 mps 757 mmHg 86%
    22:00 +23°C° 0.7 mm 4 mps 757 mmHg 87%
    23:00 +22°C° 0.7 mm 5 mps 757 mmHg 87%

    Day after tomorrow, 24 July, Wednesday

    Time Temperature Precipitation Wind Pressure Humidity
    00:00 +22°C° 0.3 mm 5 mps 757 mmHg 88%
    01:00 +22°C° 0.3 mm 4 mps 757 mmHg 88%
    02:00 +22°C° 0.3 mm 4 mps 757 mmHg 88%
    03:00 +21°C° 0.2 mm 4 mps 757 mmHg 88%
    04:00 +21°C° 0.2 mm 5 mps 757 mmHg 88%
    05:00 +21°C° 0.2 mm 5 mps 757 mmHg 88%
    06:00 +21°C° 0.3 mm 5 mps 757 mmHg 84%
    07:00 +22°C° 0.3 mm 6 mps 758 mmHg 79%
    08:00 +22°C° 0.3 mm 6 mps 758 mmHg 74%
    09:00 +23°C° 0 mm 6 mps 758 mmHg 68%
    10:00 +24°C° 0 mm 6 mps 758 mmHg 63%
    11:00 +26°C° 0 mm 6 mps 758 mmHg 57%
    12:00 +27°C° 0 mm 6 mps 758 mmHg 56%
    13:00 +27°C° 0 mm 6 mps 758 mmHg 54%
    14:00 +27°C° 0 mm 5 mps 758 mmHg 53%
    15:00 +27°C° 0 mm 5 mps 758 mmHg 52%
    16:00 +27°C° 0 mm 4 mps 758 mmHg 51%
    17:00 +27°C° 0 mm 3 mps 758 mmHg 51%
    18:00 +25°C° 0 mm 2 mps 758 mmHg 57%
    19:00 +23°C° 0 mm 2 mps 759 mmHg 63%
    20:00 +22°C° 0 mm 1 mps 759 mmHg 69%
    21:00 +21°C° 0 mm 1 mps 759 mmHg 70%
    22:00 +21°C° 0 mm 1 mps 759 mmHg 71%
    23:00 +20°C° 0 mm 1 mps 759 mmHg 72%

    25 July, Thursday

    Time Temperature Precipitation Wind Pressure Humidity
    00:00 +19°C° 0 mm 2 mps 759 mmHg 71%
    01:00 +19°C° 0 mm 2 mps 759 mmHg 71%
    02:00 +19°C° 0 mm 3 mps 759 mmHg 70%
    03:00 +19°C° 0 mm 3 mps 759 mmHg 71%
    04:00 +19°C° 0 mm 3 mps 759 mmHg 71%
    05:00 +19°C° 0 mm 4 mps 759 mmHg 72%
    06:00 +21°C° 0.1 mm 4 mps 759 mmHg 68%
    07:00 +23°C° 0.1 mm 4 mps 759 mmHg 65%
    08:00 +25°C° 0.1 mm 4 mps 760 mmHg 62%
    09:00 +26°C° 0.1 mm 4 mps 760 mmHg 59%
    10:00 +27°C° 0.1 mm 5 mps 760 mmHg 55%
    11:00 +28°C° 0.1 mm 5 mps 760 mmHg 52%
    12:00 +29°C° 0 mm 4 mps 759 mmHg 51%
    13:00 +29°C° 0 mm 4 mps 759 mmHg 50%
    14:00 +29°C° 0 mm 4 mps 759 mmHg 48%
    15:00 +29°C° 0 mm 3 mps 759 mmHg 49%
    16:00 +29°C° 0 mm 3 mps 759 mmHg 50%
    17:00 +28°C° 0 mm 2 mps 759 mmHg 51%
    18:00 +26°C° 0 mm 2 mps 759 mmHg 60%
    19:00 +25°C° 0 mm 1 mps 759 mmHg 68%
    20:00 +23°C° 0 mm 1 mps 759 mmHg 77%
    21:00 +22°C° 0 mm 1 mps 759 mmHg 78%
    22:00 +22°C° 0 mm 1 mps 759 mmHg 80%
    23:00 +21°C° 0 mm 1 mps 759 mmHg 82%

    26 July, Friday

    Time Temperature Precipitation Wind Pressure Humidity
    00:00 +20°C° 0 mm 2 mps 759 mmHg 80%
    01:00 +20°C° 0 mm 2 mps 758 mmHg 78%
    02:00 +20°C° 0 mm 2 mps 758 mmHg 76%
    03:00 +20°C° 0 mm 2 mps 758 mmHg 75%
    04:00 +20°C° 0 mm 2 mps 758 mmHg 74%
    05:00 +20°C° 0 mm 2 mps 758 mmHg 73%
    06:00 +23°C° 0 mm 2 mps 758 mmHg 67%
    07:00 +25°C° 0 mm 3 mps 758 mmHg 61%
    08:00 +26°C° 0 mm 3 mps 758 mmHg 55%
    09:00 +27°C° 0 mm 3 mps 758 mmHg 53%
    10:00 +28°C° 0 mm 4 mps 758 mmHg 51%
    11:00 +29°C° 0 mm 4 mps 757 mmHg 49%
    12:00 +29°C° 0 mm 4 mps 757 mmHg 48%
    13:00 +29°C° 0 mm 3 mps 757 mmHg 48%
    14:00 +30°C° 0 mm 3 mps 757 mmHg 47%
    15:00 +29°C° 0 mm 3 mps 757 mmHg 47%
    16:00 +29°C° 0 mm 2 mps 756 mmHg 48%
    17:00 +29°C° 0 mm 2 mps 756 mmHg 48%
    18:00 +27°C° 0 mm 2 mps 756 mmHg 55%
    19:00 +25°C° 0 mm 2 mps 756 mmHg 63%
    20:00 +23°C° 0 mm 2 mps 756 mmHg 71%
    21:00 +23°C° 0 mm 2 mps 756 mmHg 71%
    22:00 +23°C° 0 mm 1 mps 756 mmHg 70%
    23:00 +22°C° 0 mm 1 mps 756 mmHg 70%

    27 July, Saturday

    Time Temperature Precipitation Wind Pressure Humidity
    00:00 +21°C° 0 mm 2 mps 756 mmHg 69%
    01:00 +21°C° 0 mm 2 mps 756 mmHg 69%
    02:00 +21°C° 0 mm 2 mps 756 mmHg 68%
    03:00 +21°C° 0 mm 2 mps 756 mmHg 71%
    04:00 +20°C° 0 mm 3 mps 756 mmHg 75%
    05:00 +20°C° 0 mm 3 mps 755 mmHg 79%
    06:00 +22°C° 0 mm 4 mps 755 mmHg 74%
    07:00 +23°C° 0 mm 5 mps 755 mmHg 70%
    08:00 +26°C° 0 mm 5 mps 755 mmHg 66%
    09:00 +27°C° 0 mm 5 mps 756 mmHg 63%
    10:00 +27°C° 0 mm 6 mps 756 mmHg 61%
    11:00 +28°C° 0 mm 6 mps 756 mmHg 58%
    12:00 +28°C° 0 mm 6 mps 755 mmHg 58%
    13:00 +29°C° 0 mm 5 mps 755 mmHg 58%
    14:00 +29°C° 0 mm 5 mps 755 mmHg 57%
    15:00 +28°C° 0 mm 5 mps 755 mmHg 59%
    16:00 +28°C° 0 mm 4 mps 755 mmHg 60%
    17:00 +28°C° 0 mm 4 mps 755 mmHg 62%
    18:00 +26°C° 0 mm 3 mps 755 mmHg 70%
    19:00 +24°C° 0 mm 3 mps 755 mmHg 78%
    20:00 +23°C° 0 mm 2 mps 755 mmHg 86%
    21:00 +21°C° 0 mm 2 mps 755 mmHg 87%
    22:00 +21°C° 0 mm 2 mps 755 mmHg 88%
    23:00 +21°C° 0 mm 2 mps 755 mmHg 89%
    Show more